Location: Unspecified
(52.4292°N, 19.3359°E)
Time: 21:02:44
(UTC+02:00)

Tiros 1 - Pass Details

Date: 24 May 2024
Orbit: 624 x 657 km, 48.4° (Epoch: 16 June)

Event Time Altitude Azimuth Distance (km) Brightness Sun altitude
Rises 12:57:43 0° 238° (WSW) 2,969 10.8 58.3°
Reaches altitude 10° 13:00:09 10° 231° (SW) 2,062 10.3 58.2°
Maximum altitude 13:04:36 40° 162° (SSE) 966 9.5 58.1°
Drops below altitude 10° 13:09:03 10° 93° (E) 2,070 9.8 58.0°
Sets 13:11:30 0° 86° (E) 2,982 10.5 57.9°
